When you browse on this site, cookies collect data to enhance your experience and personalize the content and advertising you see.
Visit our Privacy Policy to learn more. By continuing to use the site, you agree to this use of cookies and data.
  • în România
  • Lista ţărilor
  • Pe 7 zile
  • Temperatura apei
  • Meteo pe hartă
  • Widget-uri
  • user-avatar
    Intrare

    Meteo pe oră la Blenheim

    Astăzi, 6 Iunie, Sâmbătă

    Timp Temperatura Precipitaţii Vânt Presiune Umiditate
    00:00 +9°C° 0 mm 1 m/s 753 mmHg 87%
    01:00 +7°C° 0 mm 2 m/s 753 mmHg 89%
    02:00 +7°C° 0 mm 2 m/s 753 mmHg 91%
    03:00 +7°C° 0 mm 2 m/s 752 mmHg 93%
    04:00 +7°C° 0 mm 2 m/s 752 mmHg 93%
    05:00 +7°C° 0 mm 2 m/s 752 mmHg 93%
    06:00 +6°C° 0 mm 2 m/s 751 mmHg 92%
    07:00 +7°C° 0 mm 2 m/s 752 mmHg 89%
    08:00 +7°C° 0 mm 3 m/s 752 mmHg 86%
    09:00 +8°C° 0 mm 3 m/s 752 mmHg 82%
    10:00 +9°C° 0 mm 2 m/s 752 mmHg 75%
    11:00 +12°C° 0 mm 2 m/s 752 mmHg 69%
    12:00 +13°C° 0 mm 3 m/s 752 mmHg 61%
    13:00 +14°C° 0 mm 2 m/s 752 mmHg 62%
    14:00 +15°C° 0 mm 2 m/s 752 mmHg 63%
    15:00 +15°C° 0 mm 1 m/s 752 mmHg 65%
    16:00 +12°C° 0.2 mm 3 m/s 753 mmHg 72%
    17:00 +11°C° 0.2 mm 4 m/s 754 mmHg 79%
    18:00 +8°C° 0.2 mm 5 m/s 754 mmHg 86%
    19:00 +7°C° 2.1 mm 4 m/s 755 mmHg 88%
    20:00 +6°C° 2.1 mm 4 m/s 755 mmHg 91%
    21:00 +5°C° 2.1 mm 3 m/s 756 mmHg 94%
    22:00 +5°C° 0.1 mm 3 m/s 756 mmHg 93%
    23:00 +5°C° 0.1 mm 3 m/s 756 mmHg 93%

    Mâine, 7 Iunie, Duminică

    Timp Temperatura Precipitaţii Vânt Presiune Umiditate
    00:00 +6°C° 0.1 mm 2 m/s 757 mmHg 92%
    01:00 +6°C° 0.1 mm 2 m/s 757 mmHg 92%
    02:00 +6°C° 0.1 mm 2 m/s 757 mmHg 92%
    03:00 +7°C° 0.1 mm 1 m/s 757 mmHg 91%
    04:00 +7°C° 0 mm 1 m/s 757 mmHg 92%
    05:00 +7°C° 0 mm 1 m/s 757 mmHg 92%
    06:00 +6°C° 0 mm 1 m/s 757 mmHg 92%
    07:00 +7°C° 0 mm 1 m/s 758 mmHg 91%
    08:00 +7°C° 0 mm 1 m/s 758 mmHg 90%
    09:00 +7°C° 0 mm 1 m/s 759 mmHg 90%
    10:00 +8°C° 0 mm 1 m/s 759 mmHg 83%
    11:00 +9°C° 0 mm 2 m/s 759 mmHg 77%
    12:00 +10°C° 0 mm 2 m/s 759 mmHg 70%
    13:00 +12°C° 0 mm 2 m/s 758 mmHg 67%
    14:00 +13°C° 0 mm 2 m/s 758 mmHg 63%
    15:00 +13°C° 0 mm 2 m/s 758 mmHg 60%
    16:00 +11°C° 0 mm 3 m/s 758 mmHg 65%
    17:00 +9°C° 0 mm 3 m/s 759 mmHg 70%
    18:00 +7°C° 0 mm 3 m/s 759 mmHg 75%
    19:00 +6°C° 0 mm 4 m/s 759 mmHg 77%
    20:00 +6°C° 0 mm 4 m/s 759 mmHg 79%
    21:00 +5°C° 0 mm 4 m/s 760 mmHg 81%
    22:00 +5°C° 0 mm 4 m/s 760 mmHg 82%
    23:00 +5°C° 0 mm 4 m/s 760 mmHg 83%

    Poimâine, 8 Iunie, Luni

    Timp Temperatura Precipitaţii Vânt Presiune Umiditate
    00:00 +5°C° 0 mm 4 m/s 761 mmHg 83%
    01:00 +5°C° 0 mm 4 m/s 761 mmHg 84%
    02:00 +4°C° 0 mm 3 m/s 761 mmHg 85%
    03:00 +4°C° 0 mm 3 m/s 761 mmHg 86%
    04:00 +4°C° 0 mm 3 m/s 761 mmHg 85%
    05:00 +4°C° 0 mm 3 m/s 761 mmHg 85%
    06:00 +4°C° 0 mm 3 m/s 761 mmHg 84%
    07:00 +4°C° 0 mm 3 m/s 761 mmHg 82%
    08:00 +5°C° 0 mm 3 m/s 762 mmHg 81%
    09:00 +5°C° 0 mm 3 m/s 762 mmHg 79%
    10:00 +8°C° 0 mm 3 m/s 762 mmHg 72%
    11:00 +10°C° 0 mm 3 m/s 762 mmHg 65%
    12:00 +13°C° 0 mm 2 m/s 762 mmHg 58%
    13:00 +14°C° 0 mm 2 m/s 762 mmHg 57%
    14:00 +14°C° 0 mm 1 m/s 761 mmHg 57%
    15:00 +14°C° 0 mm 1 m/s 761 mmHg 57%
    16:00 +13°C° 0 mm 1 m/s 761 mmHg 64%
    17:00 +11°C° 0 mm 1 m/s 762 mmHg 71%
    18:00 +9°C° 0 mm 1 m/s 762 mmHg 78%
    19:00 +8°C° 0 mm 1 m/s 762 mmHg 79%
    20:00 +7°C° 0 mm 2 m/s 762 mmHg 80%
    21:00 +6°C° 0 mm 2 m/s 763 mmHg 81%
    22:00 +6°C° 0 mm 2 m/s 763 mmHg 81%
    23:00 +6°C° 0 mm 2 m/s 763 mmHg 82%

    9 Iunie, Marţi

    Timp Temperatura Precipitaţii Vânt Presiune Umiditate
    00:00 +5°C° 0 mm 2 m/s 763 mmHg 82%
    01:00 +4°C° 0 mm 3 m/s 763 mmHg 82%
    02:00 +4°C° 0 mm 3 m/s 763 mmHg 82%
    03:00 +4°C° 0 mm 3 m/s 763 mmHg 81%
    04:00 +4°C° 0 mm 3 m/s 763 mmHg 81%
    05:00 +5°C° 0 mm 2 m/s 763 mmHg 81%
    06:00 +5°C° 0 mm 2 m/s 763 mmHg 81%
    07:00 +6°C° 0 mm 2 m/s 763 mmHg 79%
    08:00 +6°C° 0 mm 2 m/s 764 mmHg 76%
    09:00 +7°C° 0 mm 2 m/s 764 mmHg 74%
    10:00 +9°C° 0 mm 2 m/s 764 mmHg 67%
    11:00 +12°C° 0 mm 1 m/s 765 mmHg 60%
    12:00 +14°C° 0 mm 1 m/s 765 mmHg 54%
    13:00 +14°C° 0 mm 1 m/s 765 mmHg 55%
    14:00 +13°C° 0 mm 1 m/s 764 mmHg 56%
    15:00 +13°C° 0 mm 1 m/s 764 mmHg 58%
    16:00 +12°C° 0 mm 1 m/s 765 mmHg 66%
    17:00 +10°C° 0 mm 1 m/s 765 mmHg 74%
    18:00 +7°C° 0 mm 0 m/s 766 mmHg 82%
    19:00 +8°C° 0 mm 1 m/s 766 mmHg 82%
    20:00 +7°C° 0 mm 1 m/s 767 mmHg 81%
    21:00 +6°C° 0 mm 2 m/s 767 mmHg 81%
    22:00 +6°C° 0 mm 2 m/s 767 mmHg 81%
    23:00 +6°C° 0 mm 2 m/s 767 mmHg 80%

    10 Iunie, Miercuri

    Timp Temperatura Precipitaţii Vânt Presiune Umiditate
    00:00 +6°C° 0 mm 2 m/s 767 mmHg 79%
    01:00 +6°C° 0 mm 2 m/s 767 mmHg 80%
    02:00 +6°C° 0 mm 2 m/s 767 mmHg 81%
    03:00 +5°C° 0 mm 2 m/s 767 mmHg 82%
    04:00 +5°C° 0 mm 2 m/s 767 mmHg 83%
    05:00 +5°C° 0 mm 2 m/s 767 mmHg 84%
    06:00 +4°C° 0 mm 3 m/s 767 mmHg 85%
    07:00 +5°C° 0 mm 3 m/s 767 mmHg 83%
    08:00 +5°C° 0 mm 3 m/s 767 mmHg 81%
    09:00 +7°C° 0 mm 3 m/s 767 mmHg 79%
    10:00 +9°C° 0 mm 3 m/s 766 mmHg 74%
    11:00 +10°C° 0 mm 3 m/s 766 mmHg 69%
    12:00 +12°C° 0 mm 3 m/s 766 mmHg 64%
    13:00 +13°C° 0 mm 3 m/s 765 mmHg 64%
    14:00 +13°C° 0 mm 3 m/s 765 mmHg 64%
    15:00 +13°C° 0 mm 3 m/s 764 mmHg 65%
    16:00 +12°C° 0 mm 3 m/s 764 mmHg 72%
    17:00 +10°C° 0 mm 2 m/s 764 mmHg 79%
    18:00 +8°C° 0 mm 2 m/s 765 mmHg 86%
    19:00 +8°C° 0 mm 2 m/s 765 mmHg 86%
    20:00 +7°C° 0 mm 2 m/s 765 mmHg 86%
    21:00 +7°C° 0 mm 2 m/s 765 mmHg 86%
    22:00 +7°C° 0 mm 2 m/s 765 mmHg 86%
    23:00 +5°C° 0 mm 3 m/s 764 mmHg 85%

    11 Iunie, Joi

    Timp Temperatura Precipitaţii Vânt Presiune Umiditate
    00:00 +5°C° 0 mm 3 m/s 764 mmHg 85%
    01:00 +5°C° 0 mm 3 m/s 764 mmHg 85%
    02:00 +5°C° 0 mm 3 m/s 764 mmHg 86%
    03:00 +5°C° 0 mm 3 m/s 763 mmHg 86%
    04:00 +4°C° 0 mm 3 m/s 763 mmHg 86%
    05:00 +4°C° 0 mm 3 m/s 763 mmHg 87%
    06:00 +4°C° 0 mm 3 m/s 762 mmHg 87%
    07:00 +5°C° 0 mm 3 m/s 763 mmHg 84%
    08:00 +5°C° 0 mm 3 m/s 763 mmHg 82%
    09:00 +7°C° 0 mm 3 m/s 763 mmHg 79%
    10:00 +9°C° 0 mm 3 m/s 763 mmHg 72%
    11:00 +11°C° 0 mm 3 m/s 762 mmHg 65%
    12:00 +14°C° 0 mm 2 m/s 762 mmHg 59%
    13:00 +15°C° 0 mm 2 m/s 761 mmHg 59%
    14:00 +15°C° 0 mm 2 m/s 761 mmHg 59%
    15:00 +15°C° 0 mm 2 m/s 760 mmHg 60%
    16:00 +14°C° 0 mm 2 m/s 760 mmHg 66%
    17:00 +11°C° 0 mm 3 m/s 760 mmHg 72%
    18:00 +9°C° 0 mm 3 m/s 760 mmHg 79%
    19:00 +9°C° 0 mm 3 m/s 760 mmHg 79%
    20:00 +8°C° 0 mm 4 m/s 760 mmHg 80%
    21:00 +7°C° 0 mm 4 m/s 760 mmHg 80%
    22:00 +8°C° 0 mm 4 m/s 760 mmHg 80%
    23:00 +8°C° 0 mm 4 m/s 760 mmHg 81%
    Arată mai mult